Weather in Urga

Russia / Kemerovo Oblast     55°42′48″N   84°56′01″E
temp.,
°C
wind,
m/s
gust,
m/s
humid.,
%
clouds,
%
prec.,
mm/h
press.,
hPa
HPBL,
m
4 july, mon
mon401:00+11ssw22875 0.1 100612
04:00+10s11895 0.0 100710
07:00+12s23886 0.0 1007104
10:00+17ssw22735 0.0 1007567
13:00+20se116439 0.8 10061135
16:00+21sse22605 0.2 10061053
19:00+21sse22665 0.2 1005922
22:00+15e22825 0.1 100411
5 july, tue
tue501:00+13e2389100 0.1 100434
04:00+12e349289 0.0 100265
07:00+14ene38899 0.0 1001195
10:00+20ene4571100 0.0 1000510
13:00+23ene3355100 0.0 9991167
16:00+25e2549100 0.0 9971563
19:00+24ene116792 0.0 99623
22:00+18ese348486 0.1 99653
6 july, wed
wed601:00+15s3795100 2.1 997157
04:00+15ssw4997100 3.4 998305
07:00+15ese3396100 4.1 999145
10:00+18ssw448466 1.5 1000524
13:00+18s347995 2.0 1001586
16:00+19ssw558049 1.1 1002943
19:00+17ssw458528 1.8 1003618
22:00+14ssw239515 0.0 100450
7 july, thu
thu701:00+14s249489 0.0 100594
04:00+14s1194100 0.0 100518
07:00+15nw0193100 0.0 1006136
10:00+17nw3388100 0.3 1007564
13:00+14n51096100 2.1 1009511
16:00+14n3890100 0.1 1010560
19:00+14ssw1189100 0.1 101024
22:00+13ssw2391100 0.0 101036
8 july, fri
fri801:00+13wnw3489100 0.1 101082
04:00+13wnw3588100 0.1 1009121
07:00+13nnw258898 0.1 1010165
10:00+17n2385100 0.0 1010260
13:00+20nnw347153 0.4 1010739
16:00+24n465354 0.0 10082285
19:00+22nne137062 0.1 1008182
22:00+17ene11782 0.1 100911